[[{"header":{"parameterUnit":"m.s-1","parameterCategory":1,"la1":30.2991,"la2":30.254,"lo1":-89.0895,"lo2":-89.0444,"dy":0.0017,"dx":0.0017,"nx":28,"ny":28,"refTime":"2024-05-13T03:00:00:Z","depth":0,"parameterNumber":2,"parameterNumberName":"U-component_of_WINDS"},"data":[0,0,0,0,0,0,0,0,0,0,0,0,0,0,0,0,0,0,0,0,0,0,0,0,0,0,0,0,0,0,0,0,0,0,0,0,0,0,0,0,0,0,0,0,0,0,0,0,0,0,0,0,0,0,0,0,0,0,6.1698,6.1692,0,6.1086,6.1079,6.1072,6.0756,6.0755,6.0755,6.0755,6.0131,6.0115,6.0099,0,0,0,0,0,0,0,0,0,0,0,0,0,6.2593,6.2578,6.1699,6.1691,6.1683,6.1087,6.1079,6.1071,6.0756,6.0755,6.0755,6.0755,6.0136,6.0117,6.0097,0,0,0,0,0,0,0,0,0,0,0,0,0,6.2116,6.2573,6.17,6.1454,6.1426,6.1089,6.1079,6.1068,6.0756,6.0755,6.0755,6.0754,6.0142,6.0119,6.0095,5.9956,0,0,6.002,6.001,0,0,0,0,0,0,0,0,6.2143,6.2083,6.1498,6.1471,6.1439,6.0997,6.1165,6.0696,6.0756,6.1011,6.0755,6.0754,6.042,6.0372,6.0259,5.9927,5.99,6.0018,6.0003,5.9993,5.9986,0,0,0,0,0,0,0,6.2177,6.2108,6.1456,6.149,6.1454,6.1374,6.1306,6.1075,6.0726,6.0988,6.0964,6.0896,6.0403,6.0283,6.0242,5.9891,6.0019,5.9997,5.9982,5.9972,5.941,5.9409,0,0,0,0,0,0,6.2249,6.2137,6.1476,6.1438,6.1797,6.1359,6.1282,6.1139,6.0727,6.0664,6.0897,6.0883,6.0325,6.0271,6.0219,6.0026,5.9993,5.997,5.9956,5.941,5.941,5.9409,0,0,0,0,0,0,6.227,6.2193,6.15,6.178,6.1686,6.1344,6.1186,6.1128,6.1007,6.0658,6.0595,6.0838,6.0322,6.0253,6.0022,6.0,5.9959,5.9937,5.941,5.941,5.9409,5.9642,0,0,0,0,0,0,6.2297,6.2203,6.2147,6.1782,6.1673,6.1315,6.1185,6.1116,6.0965,6.0942,6.0586,6.0527,6.0317,6.0061,5.9998,5.9966,5.9918,5.9411,5.941,5.941,5.9635,5.965,5.9663,0,0,0,0,0,6.233,6.2238,6.2146,6.2068,6.1596,6.1315,6.1252,6.1011,6.0965,6.0905,6.0681,6.0538,6.0013,6.004,5.9967,5.9927,5.9411,5.941,5.941,5.9629,5.9647,5.9662,0,0,0,0,0,0,6.2611,6.2186,6.2079,6.1866,6.1629,6.1262,6.1179,6.1039,6.081,6.0798,6.0509,6.0431,6.0227,6.0053,6.0091,5.9769,5.9697,5.9682,5.9889,5.9903,5.9917,5.9963,5.9898,0,0,0,0,0,6.2649,6.2456,6.2094,6.1942,6.1828,6.1526,6.1394,6.1228,6.0971,6.0869,6.0627,6.0384,6.0162,6.0024,5.9802,5.9609,5.9526,5.9545,5.9559,5.9572,5.9562,5.9444,5.9448,5.9407,5.9407,5.9407,0,0,6.2724,6.2467,6.2364,6.1992,6.1788,6.1594,6.1443,6.1245,6.1097,6.0839,6.0605,6.042,6.0129,5.9916,5.981,5.9765,5.9555,5.9571,5.9584,5.9566,5.9444,5.9448,5.9452,5.9406,5.9406,5.9406,0,0,6.2761,6.2549,6.2396,6.2195,6.1888,6.1686,6.1651,6.1303,6.1169,6.093,6.0731,6.0552,6.0179,5.9978,5.9828,5.9786,5.9646,5.9722,5.9793,5.9682,5.9685,5.9686,5.9669,5.9667,5.9713,5.9714,5.9714,0,6.2893,6.2593,6.2337,6.2147,6.1989,6.1744,6.1587,6.1404,6.1042,6.0938,6.0892,6.0416,6.0203,5.9938,5.9928,5.9815,5.9763,5.9761,5.9705,5.9704,5.9701,5.9682,5.9677,5.9725,5.9724,5.9722,5.9721,0,6.2769,6.2564,6.2477,6.2131,6.1962,6.1792,6.1508,6.1368,6.1217,6.1021,6.0779,6.0514,6.0233,6.0158,6.001,5.9871,5.9852,5.9761,5.9683,5.9721,5.9697,5.9688,5.9741,5.9737,5.9734,5.9731,0,0,6.2968,6.2479,6.2452,6.229,6.1932,6.1768,6.1585,6.1307,6.1192,6.095,6.0788,6.0476,6.0387,6.0217,6.0043,5.9946,5.9927,5.9864,5.9853,5.9883,5.9755,5.9826,5.9821,5.9832,5.9829,5.9827,5.9779,0,6.2953,6.2612,6.2374,6.2125,6.193,6.1694,6.1533,6.1297,6.1108,6.0915,6.0705,6.0488,6.0389,6.0284,6.0177,5.9953,5.9897,5.9953,5.9678,5.9671,5.9757,5.9809,5.9883,5.985,5.9768,5.9767,5.9765,0,6.289,6.2653,6.2385,6.2043,6.1953,6.1813,6.1538,6.1357,6.1083,6.0951,6.076,6.0582,6.0377,6.0319,6.0032,6.0076,5.9949,5.9822,5.9814,5.9778,5.972,5.9773,5.9834,5.9829,5.9749,5.975,5.9751,0,6.306,6.2673,6.2461,6.233,6.1928,6.1835,6.1663,6.1388,6.1235,6.0995,6.0893,6.0634,6.0492,6.0296,6.0052,6.0033,5.979,5.9712,5.9674,5.9681,5.9633,5.9639,5.9674,5.9556,5.9556,5.9556,5.9556,0,6.3068,6.2912,6.2531,6.2401,6.2219,6.1947,6.1774,6.1582,6.1339,6.1166,6.0947,6.0791,6.0478,6.0284,6.0092,5.9882,5.9821,5.9709,5.9659,5.9727,5.9741,5.9639,5.9635,5.9554,5.9555,5.9555,5.9555,0,6.3227,6.2965,6.2718,6.2356,6.2261,6.2143,6.1833,6.1697,6.1495,6.128,6.1214,6.0897,6.0656,6.0393,6.0065,5.9936,5.9737,5.9667,5.9829,5.9801,5.9778,5.9783,5.9746,5.9726,5.9627,5.9628,5.9629,0,6.3248,6.3122,6.2746,6.2614,6.2447,6.2238,6.208,6.1807,6.1652,6.1327,6.1231,6.0972,6.0751,6.0377,6.0118,5.9865,5.9787,5.9791,5.9748,5.9819,5.9784,5.9794,5.9779,5.9805,5.9808,5.981,5.9811,0,6.3314,6.3189,6.297,6.2704,6.2522,6.23,6.2069,6.1974,6.1654,6.1491,6.124,6.1069,6.0731,6.0477,6.0192,6.0015,5.986,5.9827,5.9804,5.9872,5.997,5.9914,5.9864,5.9829,5.9827,5.9826,5.9825,5.9824,6.3402,6.3278,6.2992,6.2754,6.2551,6.234,6.2193,6.1972,6.1757,6.146,6.1312,6.1062,6.0787,6.0388,6.0215,6.0015,5.9967,5.9936,5.9927,5.9923,5.994,6.0003,5.9963,5.9962,5.9961,5.996,5.996,0,6.3454,6.3258,6.3042,6.2724,6.2537,6.2404,6.2141,6.1993,6.1776,6.1532,6.1317,6.1028,6.078,6.0501,6.0236,6.013,6.0052,6.0069,6.0074,6.0035,6.0,6.0044,6.0136,6.0136,6.0136,6.0136,6.0136,6.0136,6.3459,6.3241,6.3083,6.2761,6.2564,6.2316,6.2177,6.1981,6.1784,6.147,6.1262,6.1081,6.0822,6.0535,6.0301,6.0225,6.0137,6.0176,6.008,6.0052,6.0038,6.0024,6.0064,6.0159,6.0159,6.013,6.013,6.013]},{"header":{"parameterUnit":"m.s-1","parameterCategory":1,"la1":30.2991,"la2":30.254,"lo1":-89.0895,"lo2":-89.0444,"dy":0.0017,"dx":0.0017,"nx":28,"ny":28,"refTime":"2024-05-13T03:00:00:Z","depth":0,"parameterNumber":3,"parameterNumberName":"V-component_of_WINDS"},"data":[0,0,0,0,0,0,0,0,0,0,0,0,0,0,0,0,0,0,0,0,0,0,0,0,0,0,0,0,0,0,0,0,0,0,0,0,0,0,0,0,0,0,0,0,0,0,0,0,0,0,0,0,0,0,0,0,0,0,-6.73,-6.7298,0,-6.7097,-6.7094,-6.7092,-6.7055,-6.7057,-6.7059,-6.7061,-6.6813,-6.6805,-6.6797,0,0,0,0,0,0,0,0,0,0,0,0,0,-6.7629,-6.7623,-6.7301,-6.7298,-6.7296,-6.7097,-6.7094,-6.7091,-6.7055,-6.7057,-6.7059,-6.7061,-6.6816,-6.6806,-6.6796,0,0,0,0,0,0,0,0,0,0,0,0,0,-6.7461,-6.7621,-6.7301,-6.7255,-6.7249,-6.7098,-6.7094,-6.709,-6.7055,-6.7057,-6.706,-6.7062,-6.6819,-6.6807,-6.6795,-6.6664,0,0,-6.6757,-6.6751,0,0,0,0,0,0,0,0,-6.747,-6.7448,-6.7264,-6.7258,-6.725,-6.7105,-6.7119,-6.6946,-6.7054,-6.7127,-6.7061,-6.7064,-6.6905,-6.6886,-6.6841,-6.6652,-6.6642,-6.6756,-6.6748,-6.6743,-6.6739,0,0,0,0,0,0,0,-6.7482,-6.7457,-6.7219,-6.7261,-6.7253,-6.7234,-6.7213,-6.7086,-6.7002,-6.7121,-6.7118,-6.7096,-6.6902,-6.6853,-6.6834,-6.6638,-6.6756,-6.6745,-6.6737,-6.6732,-6.6334,-6.6331,0,0,0,0,0,0,-6.7507,-6.7467,-6.7225,-6.7213,-6.7371,-6.7226,-6.7203,-6.7148,-6.7004,-6.6985,-6.7094,-6.7095,-6.6873,-6.6849,-6.6825,-6.6663,-6.6743,-6.6731,-6.6724,-6.6337,-6.6333,-6.6329,0,0,0,0,0,0,-6.7514,-6.7486,-6.7233,-6.7339,-6.7306,-6.7218,-6.7157,-6.7143,-6.7094,-6.6984,-6.6965,-6.7061,-6.6874,-6.6843,-6.6708,-6.6654,-6.6726,-6.6714,-6.634,-6.6335,-6.6331,-6.6337,0,0,0,0,0,0,-6.7523,-6.7488,-6.7444,-6.7339,-6.7301,-6.7128,-6.7154,-6.7137,-6.7077,-6.7077,-6.6948,-6.6929,-6.6873,-6.6727,-6.6695,-6.6638,-6.6705,-6.6344,-6.6338,-6.6333,-6.6341,-6.6334,-6.6327,0,0,0,0,0,-6.7535,-6.7445,-6.7442,-6.7413,-6.7246,-6.7125,-6.7102,-6.7051,-6.7073,-6.7023,-6.6955,-6.6933,-6.6668,-6.6713,-6.6677,-6.6616,-6.6347,-6.634,-6.6333,-6.6344,-6.6335,-6.6327,0,0,0,0,0,0,-6.7531,-6.743,-6.7425,-6.7301,-6.7225,-6.712,-6.7055,-6.7042,-6.6946,-6.6948,-6.6877,-6.6848,-6.6716,-6.6653,-6.6705,-6.6483,-6.6507,-6.6493,-6.6528,-6.6518,-6.6511,-6.6525,-6.6694,0,0,0,0,0,-6.7519,-6.7441,-6.7352,-6.725,-6.7214,-6.7143,-6.7087,-6.7057,-6.6968,-6.6931,-6.6851,-6.6756,-6.6651,-6.6582,-6.6479,-6.6336,-6.6303,-6.6275,-6.6268,-6.6263,-6.6248,-6.6166,-6.6151,-6.6306,-6.6306,-6.6306,0,0,-6.7485,-6.7421,-6.7372,-6.7248,-6.7184,-6.7095,-6.7113,-6.7017,-6.6947,-6.6911,-6.6782,-6.6722,-6.661,-6.6472,-6.6405,-6.6413,-6.6201,-6.6254,-6.6251,-6.6238,-6.6157,-6.6143,-6.613,-6.6301,-6.6302,-6.6303,0,0,-6.7379,-6.7327,-6.7237,-6.7177,-6.7087,-6.7042,-6.7021,-6.6921,-6.6884,-6.6757,-6.6729,-6.6641,-6.6462,-6.6385,-6.6322,-6.62,-6.6175,-6.6168,-6.6125,-6.6046,-6.6034,-6.6023,-6.5974,-6.5959,-6.6155,-6.6155,-6.6155,0,-6.7345,-6.7222,-6.7188,-6.7098,-6.7041,-6.7023,-6.6926,-6.6866,-6.674,-6.6697,-6.6714,-6.6495,-6.6418,-6.6261,-6.6233,-6.6184,-6.6151,-6.6177,-6.6041,-6.6029,-6.6018,-6.5971,-6.5953,-6.6155,-6.6155,-6.6155,-6.6155,0,-6.7183,-6.7098,-6.7035,-6.6931,-6.6868,-6.6774,-6.6719,-6.6658,-6.6636,-6.6587,-6.6456,-6.6367,-6.6247,-6.6209,-6.6179,-6.6047,-6.6055,-6.6058,-6.6079,-6.6003,-6.5958,-6.594,-6.6154,-6.6154,-6.6154,-6.6154,0,0,-6.7056,-6.6948,-6.6923,-6.6878,-6.6782,-6.6709,-6.6614,-6.6512,-6.6459,-6.6375,-6.6287,-6.6144,-6.6149,-6.6078,-6.604,-6.5973,-6.5878,-6.5982,-6.5978,-6.5961,-6.5723,-6.5717,-6.5697,-6.5867,-6.5863,-6.586,-6.573,0,-6.6935,-6.6777,-6.6749,-6.6605,-6.6523,-6.651,-6.6426,-6.6353,-6.6307,-6.6223,-6.6167,-6.6066,-6.6082,-6.6039,-6.5973,-6.5904,-6.5828,-6.5914,-6.5773,-6.5768,-6.5795,-6.5674,-6.5665,-6.5547,-6.5713,-6.571,-6.5708,0,-6.6769,-6.6698,-6.6552,-6.6473,-6.6437,-6.6363,-6.6269,-6.6194,-6.6109,-6.608,-6.6009,-6.5982,-6.5874,-6.5911,-6.5756,-6.5816,-6.5757,-6.5716,-6.571,-6.5686,-6.5727,-6.5641,-6.5508,-6.5487,-6.568,-6.5682,-6.5684,0,-6.6686,-6.6553,-6.6449,-6.641,-6.6316,-6.6265,-6.6221,-6.6142,-6.6084,-6.5999,-6.5959,-6.5858,-6.58,-6.5718,-6.5662,-6.5695,-6.551,-6.5542,-6.5474,-6.5475,-6.5426,-6.5428,-6.5275,-6.5403,-6.5403,-6.5403,-6.5404,0,-6.6548,-6.6457,-6.6412,-6.6345,-6.6243,-6.621,-6.6105,-6.606,-6.5992,-6.5911,-6.5891,-6.5812,-6.5748,-6.5659,-6.5614,-6.5491,-6.5465,-6.5431,-6.5418,-6.5428,-6.5432,-6.5381,-6.5385,-6.5398,-6.5399,-6.54,-6.5401,0,-6.6432,-6.64,-6.6285,-6.6212,-6.6192,-6.6118,-6.605,-6.5981,-6.5943,-6.584,-6.5813,-6.5745,-6.564,-6.5581,-6.5443,-6.5414,-6.5275,-6.5269,-6.5307,-6.5299,-6.5233,-6.5237,-6.5034,-6.5004,-6.5159,-6.5158,-6.5157,0,-6.6343,-6.6275,-6.62,-6.6152,-6.6112,-6.6032,-6.5977,-6.5943,-6.5885,-6.5791,-6.5732,-6.5631,-6.5546,-6.5378,-6.5308,-6.5204,-6.519,-6.5128,-6.5172,-6.5186,-6.5181,-6.5183,-6.5174,-6.5115,-6.5114,-6.5113,-6.5112,0,-6.6185,-6.6176,-6.6104,-6.6029,-6.5968,-6.5903,-6.5837,-6.5796,-6.575,-6.5685,-6.5587,-6.5523,-6.5393,-6.5288,-6.5182,-6.5124,-6.5106,-6.5102,-6.5078,-6.5082,-6.5105,-6.5087,-6.5277,-6.5102,-6.5103,-6.5104,-6.5104,-6.5105,-6.6074,-6.6014,-6.5955,-6.5876,-6.5829,-6.5771,-6.5706,-6.5665,-6.5586,-6.5486,-6.547,-6.5363,-6.5282,-6.514,-6.5083,-6.4992,-6.5001,-6.497,-6.496,-6.4951,-6.4946,-6.5131,-6.4972,-6.4973,-6.4973,-6.4973,-6.4973,0,-6.591,-6.5876,-6.5806,-6.5723,-6.5661,-6.5671,-6.5601,-6.5544,-6.5456,-6.5389,-6.5313,-6.5198,-6.51,-6.503,-6.4928,-6.4869,-6.4858,-6.4842,-6.484,-6.4827,-6.4946,-6.4973,-6.4853,-6.4853,-6.4853,-6.4853,-6.4853,-6.4853,-6.5817,-6.5717,-6.5702,-6.5576,-6.5538,-6.5446,-6.5405,-6.5349,-6.5297,-6.5176,-6.51,-6.5062,-6.4991,-6.4886,-6.4794,-6.4775,-6.4734,-6.4718,-6.4696,-6.4806,-6.4818,-6.483,-6.4855,-6.4712,-6.4712,-6.4584,-6.4583,-6.4582]}]]